Flight Track Log - Related Links

Times and Time Zones

All times are in EDT time to prevent confusion due to time zone crossing. See the EJM826 flight status page for this flight to view local times or setup timezone preferences in your user account.

Time Position Orientation Groundspeed Altitude Reporting Facility
EDT Latitude Longitude Course Direction KTS MPH feet Rate Location/Type
Mon 07:42:47 AM 29.6289 -95.2633 191° South 162 186 600  Level Houston Center
Mon 07:43:23 AM 29.6019 -95.2692 191° South 187 215 1,700 2,165 Climbing Houston Center
Mon 07:44:24 AM 29.5600 -95.3150 224° Southwest 208 239 4,100 2,016 Climbing Houston Center
Mon 07:45:25 AM 29.5175 -95.3778 232° Southwest 264 304 5,800 1,691 Climbing Houston Center
Mon 07:46:14 AM 29.5314 -95.4350 286° West 276 318 7,200 1,909 Climbing Houston Center
Mon 07:47:15 AM 29.5556 -95.5256 287° West 292 336 9,300 1,918 Climbing Houston Center
Mon 07:48:16 AM 29.5825 -95.6172 289° West 300 345 11,100 1,869 Climbing Houston Center
Mon 07:49:17 AM 29.6150 -95.7103 292° West 312 359 13,100 1,820 Climbing Houston Center
Mon 07:50:18 AM 29.6486 -95.8061 292° West 322 371 14,800 1,659 Climbing Houston Center
Mon 07:51:20 AM 29.6900 -95.9253 292° West 334 384 16,500 1,415 Climbing Houston Center
Mon 07:52:21 AM 29.7219 -96.0189 291° West 343 395 17,700 1,180 Climbing Houston Center
Mon 07:53:22 AM 29.7578 -96.1222 292° West 350 403 18,900 1,180 Climbing Houston Center
Mon 07:54:23 AM 29.7822 -96.2322 284° West 359 413 20,100 1,171 Climbing Houston Center
Mon 07:55:25 AM 29.7906 -96.3472 275° West 362 417 21,300 1,317 Climbing Houston Center
Mon 07:56:26 AM 29.8019 -96.4883 275° West 370 426 22,800 1,279 Climbing Houston Center
Mon 07:57:27 AM 29.8100 -96.6056 275° West 371 427 23,900 1,033 Climbing Houston Center
Mon 07:58:28 AM 29.8189 -96.7236 275° West 375 432 24,900 1,220 Climbing Houston Center
Mon 07:59:30 AM 29.8275 -96.8436 275° West 379 436 26,400 1,610 Climbing Houston Center
Mon 08:00:31 AM 29.8358 -96.9578 275° West 364 419 28,200 1,574 Climbing Houston Center
Mon 08:01:32 AM 29.8442 -97.0664 275° West 348 400 29,600 -393 Climbing Houston Center
Mon 08:02:33 AM 29.8525 -97.1889 275° West 393 452 27,400 -2,780 Descending Houston Center
Mon 08:03:35 AM 29.8642 -97.3567 275° West 440 506 23,900 -3,171 Descending Houston Center
Mon 08:04:36 AM 29.8731 -97.5006 274° West 452 520 20,900 -2,951 Descending Houston Center
Mon 08:05:37 AM 29.8825 -97.6442 274° West 446 513 17,900 -3,049 Descending Houston Center
Mon 08:06:38 AM 29.8922 -97.7958 274° West 442 509 14,700 -2,585 Descending Houston Center
Mon 08:07:40 AM 29.8747 -97.9214 261° West 396 456 12,600 -1,854 Descending Houston Center
Mon 08:08:41 AM 29.8447 -98.0278 252° West 351 404 10,900 -1,770 Descending Houston Center
Mon 08:09:42 AM 29.8189 -98.1236 253° West 318 366 9,000 -1,902 Descending Houston Center
Mon 08:10:44 AM 29.7931 -98.2225 253° West 300 345 7,000 -1,463 Descending Houston Center
Mon 08:11:45 AM 29.7742 -98.3064 255° West 273 314 6,000 -1,082 Descending Houston Center
Mon 08:12:46 AM 29.7578 -98.3853 257° West 256 295 4,800 -976 Descending Houston Center
Mon 08:13:48 AM 29.7419 -98.4647 257° West 248 285 4,000 -585 Descending Houston Center
Mon 08:14:49 AM 29.7294 -98.5342 258° West 218 251 3,600 -488 Descending Houston Center
Mon 08:15:51 AM 29.7003 -98.5978 242° Southwest 209 241 3,000 -293 Descending Houston Center
Mon 08:16:52 AM 29.6581 -98.6236 208° Southwest 186 214 3,000  Level Houston Center
Mon 08:17:53 AM 29.6208 -98.5861 139° Southeast 179 206 3,000 -341 Level Houston Center
Mon 08:18:55 AM 29.5914 -98.5478 131° Southeast 165 190 2,300 -732 Descending Houston Center
Mon 08:19:56 AM 29.5636 -98.5114 131° Southeast 145 167 1,500 -738 Descending Houston Center
Mon 08:20:57 AM 29.5400 -98.4803 131° Southeast 135 155 800 -689 Descending Houston Center

Login

Don't have an account? Register now (free) for customized features, flight alerts, and more!